Kingsville NAS, TX

8:50 PM CST on November 14, 2019 (GMT -0600)
Kingsville Naval Air Station

Weather History for KNQI - September, 2019

Change the Weather History Date:

Thursday, September 19, 2019

  Actual Average Record
Temperature  
Mean Temperature 88 °F -  
Max Temperature 100 °F 87 °F 100 °F (2019)
Min Temperature 78 °F 69 °F 64 °F (2000)
Cooling Degree Days 24    
Growing Degree Days 38 (Base 50)    
Moisture  
Dew Point 76 °F    
Average Humidity 74    
Maximum Humidity 94    
Minimum Humidity 43    
Precipitation  
Precipitation 0.00 in - - ()
Sea Level Pressure  
Sea Level Pressure 29.82 in    
Wind  
Wind Speed 10 mph (SSE)    
Max Wind Speed 22 mph    
Max Gust Speed 32 mph    
Visibility 8 miles    
Events Rain    
Averages and records for this station are not official NWS values.
T = Trace of Precipitation, MM = Missing Value Source: NWS Daily Summary

Daily Weather History Graph

Daily Weather History Graph

Search for Another Location

Airport or City:

Astronomy

Sep. 19, 2019 Rise Set
Actual Time 7:18 AM CDT 7:31 PM CDT
Civil Twilight 6:54 AM CDT 7:54 PM CDT
Nautical Twilight 6:27 AM CDT 8:21 PM CDT
Astronomical Twilight 6:00 AM CDT 8:49 PM CDT
Moon 11:08 PM CDT (9/19) 11:58 AM CDT (9/19)
Length of Visible Light 12h 59m
Length of Day
12h 13m
Waning Gibbous, 74% of the Moon is Illuminated
Sep 19
Waning Gibbous
Sep 21
Last Quarter
Sep 28
New
Oct 5
First Quarter
Oct 13
Full

Hourly Weather History & Observations

Time (CDT) Temp. Heat Index Dew Point Humidity Pressure Visibility Wind Dir Wind Speed Gust Speed Precip Events Conditions
12:56 AM 82.0 °F 89.4 °F 75.9 °F 82% 29.86 in 9.0 mi South 9.2 mph - N/A   Clear
1:56 AM 81.0 °F 87.3 °F 75.9 °F 85% 29.86 in 9.0 mi SSE 8.1 mph - N/A   Clear
2:56 AM 80.1 °F 85.8 °F 77.0 °F 90% 29.85 in 8.0 mi SSE 8.1 mph - N/A   Clear
3:56 AM 79.0 °F - 77.0 °F 94% 29.83 in 6.0 mi SSE 4.6 mph - N/A   Clear
4:56 AM 80.1 °F 85.8 °F 77.0 °F 90% 29.83 in 6.0 mi SSE 6.9 mph - N/A   Clear
5:56 AM 79.0 °F - 75.9 °F 90% 29.83 in 4.0 mi SSE 4.6 mph - N/A   Clear
6:51 AM 78.8 °F - 75.2 °F 89% 29.84 in 2.0 mi Calm Calm - N/A   Clear
6:56 AM 78.1 °F - 75.9 °F 93% 29.84 in 2.0 mi Calm Calm - N/A   Scattered Clouds
7:21 AM 78.1 °F - 75.9 °F 93% 29.85 in 3.0 mi South 3.5 mph - N/A   Mostly Cloudy
7:56 AM 79.0 °F - 77.0 °F 94% 29.85 in 3.0 mi SSE 5.8 mph - N/A   Scattered Clouds
8:56 AM 84.0 °F 96.0 °F 79.0 °F 85% 29.86 in 7.0 mi South 9.2 mph - N/A   Scattered Clouds
9:56 AM 89.1 °F 103.2 °F 78.1 °F 70% 29.87 in 10.0 mi South 19.6 mph - N/A   Mostly Cloudy
10:56 AM 90.0 °F 101.3 °F 75.9 °F 63% 29.86 in 10.0 mi South 16.1 mph - N/A   Mostly Cloudy
11:56 AM 95.0 °F 106.7 °F 75.0 °F 52% 29.85 in 10.0 mi South 15.0 mph - N/A   Mostly Cloudy
12:56 PM 96.1 °F 107.1 °F 73.9 °F 49% 29.83 in 10.0 mi South 16.1 mph 23.0 mph N/A   Mostly Cloudy
1:56 PM 98.1 °F 108.0 °F 73.0 °F 44% 29.80 in 10.0 mi South 17.3 mph 23.0 mph N/A   Mostly Cloudy
2:56 PM 99.0 °F 109.3 °F 73.0 °F 43% 29.78 in 10.0 mi SSE 9.2 mph 19.6 mph N/A   Mostly Cloudy
3:56 PM 95.0 °F 108.2 °F 75.9 °F 54% 29.78 in 10.0 mi SE 16.1 mph 25.3 mph N/A   Mostly Cloudy
4:56 PM 93.9 °F 108.4 °F 77.0 °F 58% 29.76 in 10.0 mi SE 21.9 mph 29.9 mph N/A   Mostly Cloudy
5:26 PM 91.9 °F 107.3 °F 78.1 °F 64% 29.77 in 10.0 mi SE 21.9 mph 28.8 mph 0.00 in Rain Light Rain
5:56 PM 91.9 °F 105.9 °F 77.0 °F 62% 29.77 in 10.0 mi SE 20.7 mph 32.2 mph 0.00 in   Mostly Cloudy
6:56 PM 90.0 °F 102.5 °F 77.0 °F 65% 29.78 in 10.0 mi SE 19.6 mph 31.1 mph N/A   Mostly Cloudy
7:56 PM 87.1 °F 98.8 °F 77.0 °F 72% 29.79 in 10.0 mi SSE 18.4 mph 27.6 mph N/A   Mostly Cloudy
8:56 PM 86.0 °F 96.9 °F 77.0 °F 74% 29.82 in 10.0 mi SE 13.8 mph - N/A   Scattered Clouds
9:56 PM 84.9 °F 95.3 °F 77.0 °F 77% 29.83 in 10.0 mi SSE 17.3 mph - N/A   Mostly Cloudy
10:56 PM 84.9 °F 95.3 °F 77.0 °F 77% 29.84 in 10.0 mi SSE 13.8 mph - N/A   Mostly Cloudy
11:56 PM 84.0 °F 94.8 °F 78.1 °F 82% 29.84 in 10.0 mi SSE 12.7 mph - N/A   Scattered Clouds